Change the Weather History Date:

Wednesday, February 5, 2014

  Actual Average Record
Temperature  
Mean Temperature 24 °F -  
Max Temperature 28 °F 47 °F 66 °F (1993)
Min Temperature 19 °F 31 °F 6 °F (1989)
Degree Days  
Heating Degree Days 42    
Moisture  
Dew Point 0 °F    
Average Humidity 36    
Maximum Humidity 48    
Minimum Humidity 27    
Precipitation  
Precipitation 0.00 in - - ()
Sea Level Pressure  
Sea Level Pressure 30.43 in    
Wind  
Wind Speed 9 mph (ESE)    
Max Wind Speed 14 mph    
Max Gust Speed 20 mph    
Visibility 10 miles    
Events      
Averages and records for this station are not official NWS values.
T = Trace of Precipitation, MM = Missing Value Source: NWS Daily Summary

Daily Weather History Graph

Daily Weather History Graph

Search for Another Location

Airport or City:

Trip Planner

Search our weather history database for the weather conditions in past years. The results will help you decide how hot, cold, wet, or windy it might be!

Date:

Astronomy

Feb. 05, 2014 Rise Set
Actual Time 7:30 AM PST 5:16 PM PST
Civil Twilight 6:58 AM PST 5:48 PM PST
Nautical Twilight 6:21 AM PST 6:25 PM PST
Astronomical Twilight 5:45 AM PST 7:01 PM PST
Moon 10:17 AM PST (2/5) No Moon Set
Length of Visible Light 10h 50m
Length of Day
9h 45m
Waxing Crescent, 40% of the Moon is Illuminated
Feb 5
Waxing Crescent
Feb 6
First Quarter
Feb 14
Full
Feb 22
Last Quarter
Mar 1
New

Hourly Weather History & Observations

Time (PST) Temp. Windchill Dew Point Humidity Pressure Visibility Wind Dir Wind Speed Gust Speed Precip Events Conditions
12:53 AM 26.1 °F 16.8 °F 3.9 °F 39% 30.44 in 10.0 mi ESE 9.2 mph - N/A   Clear
1:53 AM 25.0 °F 15.5 °F 3.9 °F 41% 30.45 in 10.0 mi ESE 9.2 mph - N/A   Clear
2:53 AM 24.1 °F 15.2 °F 3.9 °F 42% 30.46 in 10.0 mi ESE 8.1 mph - N/A   Clear
3:53 AM 24.1 °F 19.7 °F 3.9 °F 42% 30.46 in 10.0 mi Variable 3.5 mph - N/A   Clear
4:53 AM 23.0 °F 17.0 °F 5.0 °F 46% 30.48 in 10.0 mi East 4.6 mph - N/A   Clear
5:53 AM 21.9 °F 14.5 °F 5.0 °F 48% 30.47 in 10.0 mi ESE 5.8 mph - N/A   Clear
6:53 AM 21.9 °F 13.4 °F 3.9 °F 46% 30.48 in 10.0 mi ESE 6.9 mph - N/A   Clear
7:53 AM 21.9 °F 12.5 °F 1.9 °F 42% 30.48 in 10.0 mi ESE 8.1 mph - N/A   Clear
8:53 AM 23.0 °F 13.9 °F 1.0 °F 39% 30.49 in 10.0 mi ESE 8.1 mph - N/A   Clear
9:53 AM 24.1 °F 14.4 °F -0.0 °F 35% 30.49 in - ESE 9.2 mph - N/A   Clear
10:53 AM 25.0 °F 18.1 °F 1.0 °F 36% 30.50 in 10.0 mi ESE 5.8 mph - N/A   Clear
11:53 AM 27.0 °F 18.0 °F -0.0 °F 31% 30.48 in 10.0 mi ESE 9.2 mph - N/A   Clear
12:53 PM 28.0 °F 19.3 °F -0.9 °F 29% 30.46 in 10.0 mi ESE 9.2 mph - N/A   Clear
1:53 PM 28.0 °F 20.0 °F -0.9 °F 29% 30.43 in 10.0 mi East 8.1 mph 17.3 mph N/A   Clear
2:53 PM 28.0 °F 19.3 °F -2.0 °F 27% 30.42 in 10.0 mi East 9.2 mph - N/A   Clear
3:53 PM 27.0 °F 18.0 °F -2.0 °F 29% 30.41 in 10.0 mi East 9.2 mph - N/A   Clear
4:53 PM 25.0 °F 13.1 °F -2.9 °F 30% 30.41 in 10.0 mi ESE 13.8 mph 19.6 mph N/A   Clear
5:53 PM 23.0 °F 12.4 °F -4.0 °F 31% 30.40 in 10.0 mi ESE 10.4 mph - N/A   Clear
6:53 PM 21.9 °F 9.2 °F -4.0 °F 32% 30.40 in 10.0 mi ESE 13.8 mph - N/A   Clear
7:53 PM 21.0 °F 8.1 °F -5.1 °F 32% 30.38 in 10.0 mi ESE 13.8 mph - N/A   Clear
8:53 PM 19.9 °F 7.9 °F -5.1 °F 33% 30.38 in 10.0 mi ESE 11.5 mph - N/A   Clear
9:53 PM 19.9 °F 7.3 °F -5.1 °F 33% 30.36 in 10.0 mi ESE 12.7 mph - N/A   Clear
10:53 PM 19.9 °F 8.6 °F -5.1 °F 33% 30.35 in 10.0 mi ESE 10.4 mph - N/A   Clear
11:53 PM 19.9 °F 10.1 °F -4.0 °F 35% 30.34 in 10.0 mi East 8.1 mph - N/A   Clear